Location: Bonaustraße
(48.4603°N, 11.9280°E)
Time: 10:16:52
(UTC+01:00)

X-37B - Visible Passes

Search period start: 21 January 2021 00:00
Search period end: 31 January 2021 00:00
Orbit: 384 x 390 km, 45.0° (Epoch: 02 January)

Date Brightness Start Highest point End Pass type
(mag) Time Alt. Az. Time Alt. Az. Time Alt. Az.
21 Jan 3.1 17:33:06 10° S 17:34:37 13° SSE 17:36:09 10° ESE visible
21 Jan 2.3 19:07:43 10° SW 19:09:46 28° SSW 19:09:46 28° SSW visible
22 Jan 2.1 18:09:35 10° SW 18:12:20 26° SSE 18:13:59 17° ESE visible
22 Jan 3.6 19:45:32 10° WSW 19:46:16 15° WSW 19:46:16 15° WSW visible
23 Jan 1.3 18:47:11 10° WSW 18:50:12 41° S 18:50:28 40° SSE visible
24 Jan 1.8 17:48:54 10° SW 17:51:50 34° SSE 17:54:39 11° E visible
24 Jan 2.6 19:25:07 10° WSW 19:26:56 28° WSW 19:26:56 28° WSW visible
25 Jan 1.3 18:26:42 10° WSW 18:29:46 45° S 18:31:09 26° ESE visible
25 Jan 4.1 20:03:14 10° W 20:03:26 11° WSW 20:03:26 11° WSW visible
26 Jan 1.7 19:04:43 10° W 19:07:40 37° SSW 19:07:40 37° SSW visible
27 Jan 1.5 18:06:16 10° WSW 18:09:20 43° S 18:11:57 13° ESE visible
27 Jan 3.4 19:43:01 10° WSW 19:44:15 17° WSW 19:44:15 17° WSW visible
28 Jan 2.2 18:44:24 10° W 18:47:14 30° SSW 18:48:37 21° SSE visible
29 Jan 1.9 17:45:54 10° W 17:48:53 37° S 17:51:52 10° ESE visible
29 Jan 3.2 19:23:02 10° WSW 19:24:59 15° SSW 19:25:23 15° SSW visible
30 Jan 2.8 18:24:11 10° WSW 18:26:43 22° SSW 18:29:16 10° SSE visible
